Temp
16 16 16 16 17 17 18 18 19 18 18 18 17 17 17 17 17 17 17 17 17 17 16 16 16 16 16 15 15 15 14 14
16 15 14 14 16 17 16 17 18 18 18 17 17 17 17 17 16 16 16 16 16 16 16 16 16 16 15 15 15 15 14 14
15 14 13 13 15 16 17 16 17 18 18 17 17 17 17 16 17 16 16 16 16 16 16 16 15 15 15 15 15 14 13 13
13 14 14 14 14 14 15 16 17 18 17 17 17 17 17 16 16 16 16 15 15 16 15 15 15 15 14 14 14 14 14 13
13 13 13 14 14 16 17 17 17 17 17 17 16 16 16 16 16 16 15 16 16 15 15 15 14 14 14 14 13 13 13 12
13 13 14 15 17 16 16 17 17 17 16 16 16 16 16 16 16 15 15 15 15 15 15 14 14 14 13 13 12 12 12 12
13 14 16 17 17 17 17 17 17 17 16 16 16 16 16 16 15 15 15 15 15 15 15 14 13 13 13 12 12 12 11 11
13 14 15 16 16 16 17 17 16 16 16 16 16 16 16 16 15 15 14 15 14 14 14 14 13 12 12 11 11 10 10 11
14 14 15 15 15 16 16 16 16 16 16 16 16 16 15 15 15 14 14 14 14 14 14 13 12 11 11 11 9 10 10 10
15 14 15 16 16 16 16 16 16 16 16 16 16 16 15 15 15 15 14 13 14 13 13 12 11 10 10 10 9 9 9 9
15 15 16 16 16 16 16 16 16 16 16 15 15 14 14 15 14 14 13 13 13 13 12 11 10 10 10 9 8 8 8 8
16 16 16 16 15 15 15 15 15 15 15 14 15 14 14 14 14 14 13 13 13 12 12 11 10 10 9 9 8 7 7 7
16 16 16 15 15 14 14 14 14 14 14 15 14 14 14 14 14 13 13 13 12 12 11 10 9 9 9 8 7 7 6 7
16 16 16 16 16 16 14 14 14 14 14 14 13 14 14 14 14 13 13 12 11 11 11 9 8 8 9 8 11 9 7 7
16 16 17 16 15 14 14 14 13 13 12 13 13 14 13 13 13 13 12 12 11 11 10 9 9 7 7 9 10 10 8 7
15 16 15 15 15 14 14 14 13 12 12 13 13 13 13 13 13 12 12 12 11 10 9 9 8 8 6 7 7 7 9 9
16 16 15 15 15 14 14 13 13 13 13 13 12 12 12 12 12 12 11 11 10 9 9 8 7 6 7 6 6 6 5 6
15 14 14 13 14 14 14 13 12 13 13 12 11 12 12 12 12 11 11 10 9 8 8 7 6 6 6 5 6 7 7 6
15 14 14 14 14 14 14 13 13 14 13 12 11 11 11 11 11 10 9 9 8 7 7 7 6 6 6 5 4 4 4 4
15 14 14 13 14 15 14 14 13 14 14 13 11 12 11 11 10 9 9 7 8 7 7 6 6 6 5 5 4 4 4 4
Height
815 818 821 821 824 831 830 837 837 844 849 852 858 862 866 868 867 868 870 871 872 874 875 877 879 878 879 878 878 878 878 879
816 814 822 829 824 829 837 840 841 843 848 856 862 865 867 870 871 872 873 874 874 875 877 878 879 879 879 881 880 879 878 880
815 818 827 832 836 830 840 843 844 845 849 858 862 866 869 871 872 874 874 875 877 878 878 879 881 880 880 881 881 880 879 881
818 820 830 832 839 838 842 848 846 846 852 858 863 867 870 871 873 875 875 878 878 878 880 882 883 882 881 881 881 881 879 880
815 822 831 835 843 845 842 846 846 850 855 860 864 867 869 872 873 875 876 876 877 880 881 882 882 882 880 880 882 881 882 881
821 829 832 836 840 841 845 846 848 852 857 861 864 868 870 872 873 877 876 877 877 879 883 882 883 882 880 881 881 882 880 882
821 827 830 834 835 841 845 848 850 853 857 861 865 868 869 871 874 875 875 877 879 881 880 882 883 883 882 881 881 882 880 880
827 830 832 837 840 842 845 848 852 856 859 861 865 867 868 869 872 873 877 875 879 880 881 883 884 883 882 882 882 882 881 880
829 832 835 837 840 842 845 848 852 857 858 861 864 865 867 868 869 873 875 876 877 880 881 883 886 885 883 883 883 882 881 881
829 832 834 836 840 842 845 848 853 855 858 859 861 863 865 866 869 870 874 878 877 882 882 884 885 885 883 882 883 883 883 883
828 831 833 836 839 843 845 848 852 854 855 857 858 861 863 866 868 870 873 877 876 882 881 884 884 884 884 882 881 882 882 882
827 829 831 834 838 842 846 847 850 851 853 855 856 859 862 865 868 870 873 874 876 879 881 882 884 883 884 883 880 881 880 881
822 825 828 832 836 839 842 844 847 849 850 852 855 858 860 863 866 868 871 873 874 878 880 883 882 883 883 881 880 880 879 880
818 822 824 828 831 834 838 841 844 846 848 851 855 855 858 861 862 866 870 871 873 877 879 881 882 883 882 879 875 878 878 877
814 817 821 825 829 833 835 839 842 844 846 848 850 853 856 859 861 865 868 870 873 875 877 878 881 880 878 880 875 871 875 874
810 813 817 821 825 829 830 833 837 838 841 844 847 850 854 857 859 862 864 867 871 874 876 877 877 878 875 875 876 875 872 869
806 810 814 817 821 825 828 830 833 835 839 842 845 847 851 854 856 858 861 864 867 870 873 875 874 877 874 874 874 872 873 871
801 805 809 813 817 820 824 827 830 833 835 839 842 844 847 850 853 855 857 860 864 867 866 869 869 871 869 869 870 870 868 869
794 800 803 807 811 814 819 822 825 828 832 834 836 838 841 843 846 848 853 856 859 862 864 865 864 864 865 866 866 867 867 867
788 792 797 801 804 808 812 814 819 824 827 829 831 834 836 840 843 848 852 855 859 860 861 861 860 861 862 863 864 864 863 863
Wind_Speed
27 27 29 31 28 25 28 29 30 27 27 29 28 28 28 26 26 26 26 26 26 25 24 21 19 17 15 14 11 11 11 10
29 33 31 19 28 26 25 26 28 29 27 27 26 25 24 23 23 22 21 22 23 22 20 19 16 15 13 10 9 10 11 9
29 35 28 26 15 25 20 22 25 27 28 27 26 24 21 18 19 20 22 21 21 19 18 15 14 14 12 10 8 9 8 8
35 33 31 31 22 16 23 23 24 27 28 27 25 22 20 19 18 18 18 20 21 19 17 15 14 14 12 10 11 10 9 7
36 35 28 25 21 18 19 20 23 24 25 25 23 21 19 18 18 17 20 18 18 16 14 13 12 11 11 10 8 8 8 7
41 33 33 27 19 15 18 20 21 24 23 22 22 20 18 17 18 18 17 16 16 13 11 11 10 9 9 8 8 8 7 5
43 37 27 15 12 14 16 18 21 24 23 20 19 19 19 17 17 18 16 16 14 13 10 8 9 8 8 8 8 7 8 7
29 19 17 14 18 19 19 19 19 21 20 20 18 16 17 18 20 17 18 16 14 11 9 7 8 7 8 9 8 7 8 8
20 14 16 16 16 17 17 19 20 21 21 20 17 18 18 20 19 20 18 17 14 11 9 8 7 8 8 8 6 5 7 9
19 17 14 15 15 17 19 20 21 20 19 21 19 20 20 19 21 20 19 16 13 9 9 8 8 6 6 7 4 5 6 6
21 20 18 18 16 18 19 21 20 19 19 19 19 19 18 21 21 21 18 14 12 9 9 7 6 5 4 5 2 6 5 4
20 19 18 19 18 20 21 21 20 19 19 18 16 17 21 21 21 19 17 14 12 9 8 8 5 3 1 4 3 9 7 3
24 22 22 25 24 22 20 21 21 21 18 16 17 20 22 21 22 19 16 14 11 9 9 6 3 0 2 2 3 9 8 5
25 25 25 26 25 25 21 21 21 20 19 19 21 21 21 23 20 19 17 14 12 11 8 6 3 2 2 1 1 4 10 12
30 26 28 27 24 23 20 21 18 19 20 21 22 22 22 21 20 18 17 14 12 10 9 7 5 4 2 3 2 1 6 5
26 25 26 27 28 24 27 21 18 17 22 25 24 22 22 21 20 19 17 15 13 12 10 7 3 3 3 6 5 3 3 5
28 26 26 27 29 28 27 20 19 20 22 24 24 24 22 21 21 20 20 18 17 14 9 4 3 5 4 3 5 5 7 8
27 24 24 25 28 28 28 25 23 19 18 23 23 24 24 23 24 23 22 21 19 14 8 7 5 6 7 5 6 6 7 8
25 24 24 28 30 29 31 30 28 25 22 27 26 24 27 29 29 27 26 24 18 10 8 8 8 8 8 7 7 7 8 10
27 26 26 27 33 33 35 35 31 27 29 28 29 32 32 30 28 27 25 19 10 8 8 9 7 8 9 8 6 7 8 11
Wind_Direction
154 150 144 138 134 142 136 141 135 135 136 137 138 135 135 131 129 128 125 125 123 121 120 118 115 114 111 109 95 87 84 79
140 140 127 126 133 136 140 138 135 136 137 137 140 138 136 132 131 128 129 132 127 125 122 116 112 106 105 97 83 79 81 79
137 131 126 130 132 125 133 140 138 136 138 144 146 145 139 136 133 132 130 128 132 126 119 116 111 105 98 92 77 77 75 68
128 130 132 126 117 125 155 151 142 141 147 150 151 148 148 141 137 137 133 134 129 123 118 114 107 102 97 82 73 74 74 78
124 128 131 128 150 162 146 150 145 145 151 156 154 156 154 150 145 146 145 141 130 124 117 104 94 85 75 61 64 63 67 68
135 145 139 147 169 158 161 157 153 155 159 160 161 163 160 158 157 156 148 141 134 126 115 99 86 77 70 67 55 49 47 39
141 157 160 171 163 176 172 167 166 164 166 167 168 170 168 168 167 161 151 147 138 131 116 105 89 73 66 52 38 29 32 37
169 175 176 186 185 183 176 174 171 173 171 172 178 181 181 177 166 160 159 147 142 134 120 103 94 85 74 59 43 30 30 47
180 187 189 192 192 184 181 178 177 182 183 187 196 200 194 178 168 162 159 152 145 133 121 103 96 93 79 43 39 57 61 74
197 198 202 198 201 192 187 184 185 191 201 205 209 204 199 177 173 168 160 153 141 134 121 116 110 101 73 28 67 109 103 87
199 204 215 203 201 198 193 190 194 201 203 203 200 199 191 183 176 167 162 159 145 144 132 128 105 75 54 12 168 167 145 114
201 208 211 205 200 196 196 196 201 206 209 207 207 193 184 181 177 171 169 160 152 147 142 128 103 63 4 326 211 191 182 172
204 206 202 196 191 187 193 196 203 207 208 209 201 189 185 186 182 177 172 167 157 155 148 140 118 189 251 239 221 208 215 242
208 210 204 201 201 199 201 201 207 212 205 200 197 192 193 191 188 181 176 170 167 166 162 169 179 207 296 262 249 219 241 256
212 211 211 208 203 199 198 200 206 202 196 195 195 195 193 191 186 185 179 178 178 177 183 176 194 213 215 311 269 269 302 242
212 212 211 209 209 205 205 197 195 205 198 197 193 191 191 190 190 188 186 190 185 184 183 184 188 236 200 212 235 260 301 295
212 216 214 214 214 214 212 210 208 205 200 196 195 192 194 195 195 193 194 190 186 180 177 203 217 245 239 230 253 258 253 264
212 210 212 211 212 214 218 219 216 203 201 199 197 195 197 201 200 199 195 187 178 174 183 202 190 257 268 249 256 268 281 276
208 209 212 215 217 218 222 223 226 218 216 208 201 194 195 198 198 194 187 179 178 181 188 197 262 262 248 246 250 255 259 267
207 208 213 213 219 226 229 228 228 222 227 223 212 206 203 199 196 190 179 175 184 218 214 257 258 247 249 248 239 248 259 267